Regional Weather Roundup
Issued by NWS

Home | Current Version | Previous Version | Graphics & Text | Print | Product List | Glossary On
Versions: 1 2 3 4 5 6 7 8 9 10 11 12 13 14 15 16 17 18 19 20 21 22 23 24 25 26 27 28 29 30 31 32 33 34 35 36 37 38 39 40 41 42 43 44 45 46 47 48 49 50
000
ASUS43 KMPX 230410
RWRMN
WEATHER ROUNDUP FOR MINNESOTA
NATIONAL WEATHER SERVICE TWIN CITIES/CHANHASSEN MN
1100 PM CDT TUE APR 22 2014


NOTE: "FAIR" INDICATES FEW OR NO CLOUDS BELOW 12,000 FEET WITH NO
SIGNIFICANT WEATHER AND/OR OBSTRUCTIONS TO VISIBILITY. N/A MEANS
CURRENT SKY AND/OR WEATHER CONDITIONS ARE NOT AVAILABLE.

MNZ060>063-068>070-230500-
   Twin Cities Metro

CITY           SKY/WX    TMP DP  RH WIND       PRES   REMARKS
TWIN CITIES    MOCLDY    48  24  39 E7        30.08S
ST PAUL        PTCLDY    46  26  45 CALM      30.09S
CRYSTAL        PTCLDY    49  24  37 E5        30.07S
BLAINE         PTCLDY    43  30  61 E5        30.08S
EDEN PRAIRIE   PTCLDY    50  26  39 E7        30.07S
LAKEVILLE      PTCLDY    41  30  65 E3        30.08S
SOUTH ST PAUL  PTCLDY    47  29  49 CALM      30.09S
LAKE ELMO      FAIR      39  30  70 CALM      30.10R
$$
MNZ001>005-007-008-013>017-022>024-027-028-230500-
   Northwest Minnesota

CITY           SKY/WX    TMP DP  RH WIND       PRES   REMARKS
BEMIDJI        PTCLDY    33  22  64 E3        30.04F
HALLOCK        CLOUDY    45  28  53 E13       30.00F
ROSEAU         CLEAR     41  25  52 E8        30.05S
WARROAD        CLEAR     39  27  60 E7        30.06F
THIEF RVR FALL CLEAR     43  25  49 E9        30.02F
CROOKSTON      PTCLDY    46  28  49 SE13      30.01S
FOSSTON        PTCLDY    37  25  60 E7        30.03F
DETROIT LAKES  PTCLDY    48  28  46 SE10      30.02S
MOORHEAD       PTCLDY    52  30  43 SE10      29.99S
PARK RAPIDS    PTCLDY    44  24  45 SE6       30.03S
$$
MNZ006-009>011-018-025>026-230500-
   North Central Minnesota

CITY           SKY/WX    TMP DP  RH WIND       PRES   REMARKS
BAUDETTE       CLEAR     36  25  64 E5        30.07R
FLAG ISLAND    CLEAR     36  19  51 CALM      30.06S
INTL FALLS     CLEAR     29  23  78 CALM      30.07S
WASKISH        CLEAR     30  25  80 E3        30.07S
BIG FORK       CLEAR     32  21  64 CALM      30.08S
LONGVILLE      PTCLDY    30  25  80 CALM      30.06S
GRAND RAPIDS   CLEAR     32  19  59 CALM      30.08S
CRANE LAKE     CLEAR     25  18  74 CALM      30.10F
ORR            CLEAR     30  19  64 CALM      30.06F
COOK           CLEAR     30  25  80 CALM      30.09S
$$
MNZ012-019>021-037-230500-
   Northeast Minnesota

CITY           SKY/WX    TMP DP  RH WIND       PRES   REMARKS
DULUTH         CLEAR     38  20  48 CALM      30.08R
ELY            CLEAR     30  21  69 CALM      30.09R
HIBBING        CLEAR     29  22  75 CALM      30.08R
EVELETH        CLEAR     30  25  80 CALM      30.10R
DULUTH HARBOR  CLEAR     34  28  80 CALM      30.11S
TWO HARBORS    CLEAR     28  21  74 N5        30.08R WCI  23
SILVER BAY     CLEAR     27  25  93 CALM      30.09R
GRAND MARAIS     N/A     30  26  85 NW5       30.12R WCI  25
G MARAIS ARPRT CLEAR     27  21  80 CALM      30.08S
$$
MNZ029>031-032-039>041-046>048-054>057-064-230500-
   West Central Minnesota

CITY           SKY/WX    TMP DP  RH WIND       PRES   REMARKS
FERGUS FALLS   PTCLDY    52  27  37 SE8       29.97S
WHEATON        MOCLDY    54  37  54 E13       30.00S
MORRIS         MOCLDY    52  34  50 SE12      30.00S
ALEXANDRIA     PTCLDY    48  28  46 E13       30.03S
ELBOW LAKE     FAIR      48  33  56 SE9       30.00S
WADENA         PTCLDY    45  25  45 E6        30.03F
GLENWOOD       MOCLDY    45  34  65 E10       30.03S
APPLETON       MOCLDY    52  36  54 SE10G16   30.00S
BENSON         MOCLDY    52  34  50 SE14      30.02S
ORTONVILLE     MOCLDY    52  36  54 SE14G21   29.98F
MADISON        CLOUDY    55  37  50 SE14G20   30.00S
WILLMAR        FAIR      48  34  57 E9        30.04S
$$
MNZ033>034-036-042>043-049>051-058-059-230500-
   Central Minnesota

CITY           SKY/WX    TMP DP  RH WIND       PRES   REMARKS
ST CLOUD       PTCLDY    47  26  44 E5        30.06S
SAUK CENTRE    FAIR      45  28  52 E7        30.05R
PAYNESVILLE    MOCLDY    47  30  50 E3        30.06R
AITKIN         CLEAR     34  27  75 CALM      30.06S
PINE RIVER     CLEAR     39  25  56 CALM      30.09S
BRAINERD       CLEAR     41  27  57 CALM      30.06F
STAPLES        PTCLDY    43  25  49 CALM      30.05S
LONG PRAIRIE   FAIR      45  27  49 E8        30.05S
LITTLE FALLS   PTCLDY    43  28  56 CALM      30.06S
LITCHFIELD     MOCLDY    45  34  65 E7        30.06S
BUFFALO        PTCLDY    46  28  50 E6        30.08R
MAPLE LAKE     PTCLDY    44  31  60 CALM      30.07S
$$
MNZ037-044-045-052-053-230500-
   East Central Minnesota

CITY           SKY/WX    TMP DP  RH WIND       PRES   REMARKS
PRINCETON      CLEAR     45  28  53 E3        30.08S
MORA           CLEAR     36  30  80 CALM      30.09S
CAMBRIDGE      CLEAR     41  27  56 CALM      30.07S
RUSH CITY      PTCLDY    38  26  62 CALM      30.08S
MOOSE LAKE     PTCLDY    32  23  69 CALM      30.06F
HINCKLEY       FAIR      34  28  80 CALM      30.08S
CLOQUET        CLEAR     32  19  59 CALM      30.08F
MCGREGOR       CLEAR     36  28  75 CALM      30.08S
$$
MNZ071>073-080-081-089-090-097-098-230500-
   Southwest Minnesota

CITY           SKY/WX    TMP DP  RH WIND       PRES   REMARKS
MONTEVIDEO     CLOUDY    52  36  54 S10       30.03S
GRANITE FALLS  CLOUDY    52  33  46 E8        30.04R
CANBY          CLOUDY    53  37  54 SE9       30.01S
MARSHALL       CLOUDY    54  34  47 SE15      30.01S
REDWOOD FALLS  CLOUDY    54  30  40 E10       30.03R
OLIVIA         CLOUDY    50  32  50 SE8       30.03R
PIPESTONE      CLOUDY    55  32  41 SE12      29.98F
WINDOM         CLOUDY    54  32  43 E12       30.04R
WORTHINGTON    CLOUDY    54  30  40 SE12      30.04S
JACKSON        CLOUDY    54  32  43 E10       30.04S
TRACY          CLOUDY    55  33  43 SE9       30.02S
SLAYTON        CLOUDY    53  32  44 E16       30.01F
$$
MNZ065>067-074>077-082>085-091>093-230500-
   South Central Minnesota

CITY           SKY/WX    TMP DP  RH WIND       PRES   REMARKS
MANKATO        MOCLDY    48  28  46 E12       30.06F
NEW ULM        CLOUDY    52  34  50 E8        30.05R
ST JAMES       CLOUDY    54  30  40 E8        30.06R
FAIRMONT       CLOUDY    52  32  46 E7        30.07R
GLENCOE        MOCLDY    46  30  54 E6        30.06S
FARIBAULT      PTCLDY    48  27  43 E3        30.08S
OWATONNA       PTCLDY    43  32  65 E3        30.08S
WASECA         PTCLDY    43  28  56 E8        30.09S
ALBERT LEA     PTCLDY    46  34  61 CALM      30.07S
$$
MNZ078>079-086>088-094>096-230500-
   Southeast Minnesota

CITY           SKY/WX    TMP DP  RH WIND       PRES   REMARKS
ROCHESTER      PTCLDY    45  25  45 NE7       30.08S
RED WING       CLEAR     37  28  70 E5        30.09S
STANTON        PTCLDY    41  31  66 E3        30.07S
DODGE CENTER   PTCLDY    45  30  57 E6        30.08S
WINONA         CLEAR     41  32  70 CALM      30.11R
AUSTIN         CLEAR     45  32  61 E5        30.07S
PRESTON        PTCLDY    44  26  48 E5        30.09R
$$
ABBREVIATIONS USED IN REMARKS
   TC - TEMPERATURES IN CELSIUS
  WCI - WIND CHILL INDEX
   HX - HEAT INDEX
  VSB - VISIBILITY
$$



USA.gov is the U.S. government's official web portal to all federal, state and local government web resources and services.